Wheeling, WV

1:52 AM EST on December 07, 2019 (GMT -0500)
Wheeling-Ohio County

Weather History for KHLG - October, 2019

Change the Weather History Date:

Saturday, October 12, 2019

  Actual Average Record
Temperature  
Mean Temperature 54 °F 54 °F  
Max Temperature 66 °F 64 °F 83 °F (1938)
Min Temperature 42 °F 45 °F 24 °F (1906)
Degree Days  
Heating Degree Days 11 11  
Month to date heating degree days 58 110  
Since 1 July heating degree days 59 211  
Cooling Degree Days 0 0  
Month to date cooling degree days 40 10  
Year to date cooling degree days 986 688  
Growing Degree Days 4 (Base 50)    
Moisture  
Dew Point 44 °F    
Average Humidity 69    
Maximum Humidity 97    
Minimum Humidity 41    
Precipitation  
Precipitation 0.12 in 0.08 in 1.50 in (1885)
Month to date precipitation 1.72 1.01  
Year to date precipitation 29.70 30.78  
Sea Level Pressure  
Sea Level Pressure 30.03 in    
Wind  
Wind Speed 8 mph (WSW)    
Max Wind Speed 21 mph    
Max Gust Speed 27 mph    
Visibility 9 miles    
Events Rain    
T = Trace of Precipitation, MM = Missing Value Source: NWS Daily Summary

Daily Weather History Graph

Daily Weather History Graph

Search for Another Location

Airport or City:

Astronomy

Oct. 12, 2019 Rise Set
Actual Time 7:29 AM EDT 6:47 PM EDT
Civil Twilight 7:02 AM EDT 7:14 PM EDT
Nautical Twilight 6:31 AM EDT 7:46 PM EDT
Astronomical Twilight 5:59 AM EDT 8:17 PM EDT
Moon 6:43 PM EDT (10/12) 6:05 AM EDT (10/12)
Length of Visible Light 12h 12m
Length of Day
11h 17m
Waxing Gibbous, 99% of the Moon is Illuminated
Oct 12
Waxing Gibbous
Oct 13
Full
Oct 21
Last Quarter
Oct 27
New
Nov 4
First Quarter

Hourly Weather History & Observations

Time (EDT) Temp. Windchill Dew Point Humidity Pressure Visibility Wind Dir Wind Speed Gust Speed Precip Events Conditions
12:53 AM 66.0 °F - 52.0 °F 60% 29.92 in 10.0 mi SE 6.9 mph - N/A   Overcast
1:53 AM 66.0 °F - 53.1 °F 63% 29.90 in 10.0 mi SE 8.1 mph - N/A   Overcast
2:53 AM 64.9 °F - 53.1 °F 65% 29.89 in 10.0 mi SSE 6.9 mph - N/A   Overcast
3:53 AM 64.9 °F - 54.0 °F 68% 29.88 in 10.0 mi South 6.9 mph - N/A   Overcast
4:53 AM 63.0 °F - 55.9 °F 78% 29.89 in 10.0 mi Calm Calm - 0.00 in   Overcast
5:53 AM 62.1 °F - 57.0 °F 84% 29.90 in 10.0 mi West 6.9 mph - 0.00 in   Overcast
6:08 AM 61.0 °F - 57.9 °F 90% 29.93 in 10.0 mi WNW 15.0 mph 21.9 mph N/A   Overcast
6:15 AM 61.0 °F - 57.9 °F 90% 29.93 in 10.0 mi West 17.3 mph 23.0 mph N/A   Overcast
6:53 AM 55.0 °F - 53.1 °F 93% 29.96 in 6.0 mi WNW 12.7 mph - 0.00 in Rain Light Rain
7:51 AM 51.8 °F - 50.0 °F 94% 30.00 in 7.0 mi WNW 5.8 mph - 0.06 in Rain Light Rain
7:53 AM 51.1 °F - 50.0 °F 96% 30.01 in 8.0 mi NW 5.8 mph - 0.06 in Rain Light Rain
8:11 AM 51.1 °F - 48.9 °F 92% 30.01 in 2.5 mi West 13.8 mph 18.4 mph 0.01 in Rain Light Rain
8:26 AM 50.0 °F - 48.0 °F 93% 30.02 in 4.0 mi West 12.7 mph - 0.02 in Rain Light Rain
8:36 AM 50.0 °F - 48.0 °F 93% 30.03 in 6.0 mi West 11.5 mph - 0.02 in Rain Light Rain
8:53 AM 50.0 °F - 48.0 °F 93% 30.04 in 10.0 mi WNW 10.4 mph - 0.03 in Rain Light Rain
9:14 AM 48.9 °F - 48.0 °F 97% 30.05 in 2.5 mi West 9.2 mph - 0.01 in Rain Light Rain
9:53 AM 46.9 °F - 45.0 °F 93% 30.07 in 9.0 mi West 12.7 mph 19.6 mph 0.03 in   Overcast
10:53 AM 46.0 °F 41.0 °F 43.0 °F 89% 30.10 in 10.0 mi West 10.4 mph - 0.00 in   Overcast
11:53 AM 46.0 °F 41.0 °F 42.1 °F 86% 30.12 in 10.0 mi WSW 10.4 mph - N/A   Overcast
12:10 PM 46.9 °F - 39.9 °F 77% 30.11 in 10.0 mi WSW 11.5 mph - N/A   Scattered Clouds
12:24 PM 48.0 °F - 41.0 °F 77% 30.11 in 10.0 mi Variable 5.8 mph - N/A   Mostly Cloudy
12:53 PM 48.9 °F - 39.0 °F 69% 30.12 in 10.0 mi WSW 9.2 mph 20.7 mph N/A   Scattered Clouds
1:53 PM 52.0 °F - 37.9 °F 59% 30.09 in 10.0 mi SW 10.4 mph - N/A   Clear
2:53 PM 54.0 °F - 34.0 °F 47% 30.08 in 10.0 mi West 11.5 mph 18.4 mph N/A   Clear
3:53 PM 55.0 °F - 33.1 °F 43% 30.09 in 10.0 mi WSW 6.9 mph 20.7 mph N/A   Clear
4:53 PM 55.0 °F - 33.1 °F 43% 30.08 in 10.0 mi WSW 10.4 mph - N/A   Clear
5:53 PM 54.0 °F - 30.9 °F 41% 30.09 in 10.0 mi SW 9.2 mph - N/A   Clear
6:53 PM 50.0 °F - 30.9 °F 48% 30.10 in 10.0 mi West 4.6 mph - N/A   Clear
7:53 PM 48.0 °F - 32.0 °F 54% 30.11 in 10.0 mi SSW 4.6 mph - N/A   Clear
8:53 PM 46.9 °F - 32.0 °F 56% 30.12 in 10.0 mi WSW 3.5 mph - N/A   Clear
9:53 PM 44.1 °F 40.1 °F 33.1 °F 65% 30.14 in 10.0 mi SSW 6.9 mph - N/A   Clear
10:53 PM 43.0 °F 38.2 °F 34.0 °F 71% 30.13 in 10.0 mi South 8.1 mph - N/A   Clear
11:53 PM 43.0 °F 38.2 °F 34.0 °F 71% 30.12 in 10.0 mi South 8.1 mph - N/A   Clear